Location: ShareBrained
(45.5589°N, 122.6491°W)
Time: 12:51:59
(UTC-08:00)

NOAA 19 - Pass Details

Date: 23 January 2020
Orbit: 840 x 862 km, 99.2° (Epoch: 24 February)

Event Time Altitude Azimuth Distance (km) Brightness Sun altitude
Rises 18:08:49 0° 200° (SSW) 3,411 8.9 -11.4°
Reaches altitude 10° 18:11:40 10° 214° (SW) 2,476 8.4 -11.9°
Maximum altitude 18:15:59 24° 267° (W) 1,712 7.8 -12.6°
Drops below altitude 10° 18:20:20 10° 319° (NW) 2,479 8.0 -13.3°
Sets 18:23:12 0° 334° (NNW) 3,416 8.5 -13.8°
